sat.trackr.live / text

‹ back to catalog

STARLINK-11701 [DTC]

NORAD 63760 · 2025-089K

PAYLOAD ACTIVE UNKNOWN

§ Identity

Operator
Country
US
Launch date
2025-04-29
Launch site
AFETR
Launch vehicle
Mass (kg)
RCS (m²)

Purposes: comms

External: N2YO · Heavens-Above · Gunter

§ Orbital elements

Epoch: 2026-05-24T19:48:19.302624Z

Period
91.67 min
Inclination
42.9986°
Eccentricity
0.0001092
Mean motion
15.70883249 rev/d
Perigee alt
355.6 km
Apogee alt
357.1 km
Semi-major
6,734.5 km
B*
1.4491e-3
RAAN
192.9664°
Arg perigee
298.1757°
Mean anomaly
61.9000°
Rev number
6,211

§ Raw data

STARLINK-11701 [DTC]1 63760U 25089K   26144.82522341  .00190155  00000+0  14491-2 0  99912 63760  42.9986 192.9664 0001092 298.1757  61.9000 15.70883249 62113

JSON: /api/v1/satellites/63760 · /tle

For live sub-satellite position, see the globe view (requires WebGL).

§ Visibility from observer

Set your observer location to see the next 7 days of passes ≥ 10°. The values pass through the URL so the page stays shareable.

No JS? Fill the form by hand. The geolocation button needs JavaScript.